Location: Mauries
(43.6188°N, 0.3322°W)
Time: 20:35:46
(UTC+00:00)

AO-91 - Visible Passes

Search period start: 15 May 2026 00:00
Search period end: 25 May 2026 00:00
Orbit: 424 x 636 km, 97.5° (Epoch: 15 May)

Date Brightness Start Highest point End Pass type
(mag) Time Alt. Az. Time Alt. Az. Time Alt. Az.
15 May ? 21:03:25 10° NNE 21:06:50 81° ESE 21:08:52 24° S visible
16 May ? 20:52:55 10° NNE 20:56:19 57° E 20:58:23 23° S visible
17 May ? 20:42:27 10° NNE 20:45:46 41° E 20:47:53 20° SSE visible
17 May ? 22:18:09 10° NW 22:19:49 13° WNW 22:21:32 10° W visible
18 May ? 20:32:02 10° NE 20:35:11 31° E 20:37:23 17° SSE visible
18 May ? 22:07:01 10° NNW 22:09:21 17° WNW 22:11:47 10° WSW visible
19 May ? 20:21:41 10° NE 20:24:36 23° E 20:26:52 14° SE visible
19 May ? 21:56:04 10° NNW 21:58:51 22° WNW 22:01:46 10° WSW visible
20 May ? 20:11:25 10° NE 20:13:58 18° E 20:16:20 11° SE visible
20 May ? 21:45:12 10° N 21:48:20 30° WNW 21:51:37 10° SW visible
21 May ? 20:01:21 10° ENE 20:03:19 14° E 20:05:20 10° SE visible
21 May ? 21:34:25 10° N 21:37:47 40° WNW 21:41:05 12° SW visible
22 May ? 21:23:41 10° N 21:27:13 55° WNW 21:30:31 13° SSW visible
23 May ? 21:12:58 10° N 21:16:37 75° WNW 21:19:57 14° SSW visible
24 May ? 21:02:19 10° NNE 21:06:00 80° ESE 21:09:22 14° S visible
